COSMOS 2251 DEB, 35440

Orbit data source: Space-Track

COSMOS 2251 DEB, 35440 is space debris in LEO originally from a launch on Wed, 16 Jun 1993 UTC launched from the Plesetsk Missile And Space Complex (PKMTR). The debris from Iridium 33, an American commercial communications satellite, has been tracked extensively since its accidental collision with the defunct Russian satellite Cosmos 2251 in 2009. This event, occurring at high speed in low Earth orbit (LEO), generated thousands of pieces of space debris, significantly increasing the risk of further collisions. The Iridium 33 debris cloud has impacted space traffic management and orbital debris mitigation strategies, making it a subject of ongoing study in space situational awareness.

Loading next visibility...
Identifier
35440, 1993-036AKJ
Orbit
LEO
Country
Flag of CISCIS
Related business
Manufacturer
Unknown
Mission
Spacecraft
Bus & Motor
Unknown
Mass
Unknown
Launch date (UTC)
1993-06-16 (33 years ago)
Launch vehicle
Unknown
Launch site
Plesetsk Missile And Space Complex (PKMTR)
Object type
Payload
Rocket body
Debris
Shape & HBR
Unknown shape, 0.1 m
Radar Cross Section
Small (<0.1 m²)

Expand to show TLE details & history
Last TLE update: 16 hours ago

TLE from 16 hours ago
0 COSMOS 2251 DEB
1 35440U 93036AKJ 26222.39273383  .00000889  00000-0  14858-3 0  9993
2 35440  74.0131 100.7748 0068731 183.0665 177.0095 14.69971387723001
Epoch: 2026-08-10T09:25Z
TLE epoch observation values (Epoch: 2026-08-10T09:25:32.202Z)
Latitude
-0.00008°
Longitude
0.51458°
Altitude
712.136 km
Speed
7.474 km/s
True Right ascension
06h 43m 05s
True Declination
0° 00' 00"
Sunlit
Object was in daylight at epoch
Visualization orbit readout
Latitude
Unknown
Longitude
Unknown
Altitude
Unknown
Speed
Unknown
Apparent Right ascension
Unknown
Apparent Declination
Unknown
Sunlit
N/A
Visualization observer readout
Local Sidereal Time
16:05:09
Azimuth
Unknown
Elevation
Unknown
Doppler factor
Unknown
Orbital elements
Apogee altitude
707.113 km
Perigee altitude
610.383 km
Semi-major axis
7,036.885 km
Eccentricity
0.00687
Inclination
74.0131°
RAAN
100.7748°
Arg. of periapsis
183.0665°
True anomaly
177.05024°
Mean anomaly
177.0095°
Eccentric anomaly
177.0299°
Mean motion
3.67682 °/min
Orbital period
97.91 mins
BSTAR
0.00014858
Loading maneuver chart data...
Computing Atmospheric mass density...

Documentation

Showing up to 5 results
|